Theta_e
299 299 311 323 330 334 337 339 342 345 346 348 347 348 348 348 348 348 347 348 348 347 347 346 345 345 343 343 341 341 340 340 339 339 340 341 341 340 339 337 337 333 338
299 298 308 319 325 329 332 335 337 340 342 344 347 346 345 345 346 347 348 347 347 347 348 347 345 345 343 343 340 340 340 341 341 340 340 340 343 341 339 337 336 333 333
298 298 303 316 321 324 328 331 333 336 338 340 342 343 347 346 345 344 344 345 346 346 346 347 345 345 344 343 341 340 341 340 340 340 337 333 335 338 336 335 332 331 331
298 299 303 312 317 320 323 326 328 331 333 335 336 339 341 344 345 345 345 345 344 344 346 346 347 345 345 344 342 341 341 340 340 339 333 332 332 335 334 332 331 334 336
298 298 302 310 314 317 319 322 323 326 327 329 331 335 337 338 340 343 344 344 343 344 345 346 345 346 345 345 343 342 341 340 339 335 332 333 334 334 337 335 333 331 334
298 298 299 307 310 313 315 317 319 321 322 324 327 329 330 332 333 335 337 338 341 343 342 342 345 344 344 345 344 344 342 341 337 334 334 333 334 334 338 341 336 332 329
297 297 297 302 306 309 311 313 315 316 317 318 319 322 323 325 327 328 331 333 334 336 339 342 342 342 343 344 344 343 342 340 337 337 336 335 335 336 338 338 339 338 333
296 297 297 297 300 303 307 309 310 311 312 312 314 315 315 317 318 321 324 328 328 330 333 335 337 339 341 342 343 342 340 336 337 339 338 336 336 336 338 337 339 340 338
296 296 297 297 297 299 301 303 305 306 306 307 308 308 308 309 311 313 316 321 322 324 326 328 330 331 335 339 340 338 336 334 340 339 338 338 336 335 336 337 338 339 340
296 296 296 297 297 298 299 299 300 302 302 302 303 303 303 305 306 307 309 312 314 317 320 322 323 324 325 333 335 334 331 331 338 338 339 338 337 337 338 337 337 338 340
294 295 295 295 296 297 297 297 298 299 299 300 300 300 302 303 303 305 304 305 308 310 312 316 317 318 317 325 327 327 328 337 336 335 335 335 336 338 340 339 337 337 340
292 293 294 295 295 296 296 297 298 298 298 298 299 299 300 301 301 301 302 302 304 304 307 309 311 311 312 316 320 324 331 337 337 338 337 333 336 338 340 339 338 337 338
291 292 293 293 294 295 296 297 297 297 297 297 297 298 299 300 300 301 301 301 302 302 303 305 307 307 308 308 310 314 317 323 333 336 335 331 335 337 339 339 339 337 339
290 291 292 293 293 294 295 295 295 295 296 295 296 296 297 298 298 298 299 300 300 301 301 302 303 304 305 307 309 310 311 313 318 323 331 326 330 334 338 339 339 339 338
289 290 291 292 292 293 293 294 294 294 294 294 295 295 295 296 296 297 298 298 299 299 299 300 301 302 303 304 306 306 306 308 309 311 316 318 325 331 335 338 339 339 339
288 289 290 290 291 292 292 292 293 293 293 293 293 293 294 295 295 296 296 296 296 297 297 298 299 300 302 302 302 303 304 306 308 310 312 316 320 325 331 334 336 338 339
287 288 289 290 290 290 290 291 291 291 291 291 291 291 291 292 293 293 293 293 294 295 296 297 297 299 299 299 300 302 303 306 308 311 314 318 310 311 313 317 321 331 335
287 286 287 288 289 288 289 289 289 289 289 289 289 289 289 289 290 290 290 290 292 293 294 294 295 296 296 296 297 300 303 307 306 306 310 311 305 308 307 308 310 314 321
286 286 286 288 288 288 288 288 288 288 288 288 288 288 288 288 289 289 289 289 290 291 291 292 293 294 293 294 295 298 302 307 301 304 306 302 303 301 303 304 305 308 310
286 286 286 287 287 288 288 288 288 288 287 288 287 287 287 287 287 288 288 288 288 288 289 290 290 292 292 292 293 296 302 305 298 302 302 298 299 299 300 301 303 304 306
286 286 285 286 286 288 288 288 287 286 286 286 286 286 287 286 286 286 286 287 287 286 286 288 289 289 289 291 292 294 298 302 297 300 300 297 295 296 297 298 300 302 303
285 285 285 285 285 286 287 287 288 287 286 286 286 286 286 286 286 285 286 285 286 286 285 285 287 287 288 290 287 291 289 294 292 296 297 294 292 294 294 295 296 298 299
285 285 285 285 285 285 286 286 286 286 286 286 285 285 285 286 286 285 285 285 285 285 284 284 285 286 285 287 288 287 286 284 287 294 293 293 291 291 293 293 295 295 297
286 287 286 286 285 285 285 286 285 285 284 284 284 285 285 285 285 285 285 285 285 285 284 284 284 285 286 284 287 288 288 286 285 283 289 290 289 289 291 291 293 294 295
287 286 287 286 285 285 285 285 286 284 285 285 285 284 284 285 284 284 284 284 284 284 284 283 283 284 284 284 284 285 286 286 286 283 282 284 287 288 288 291 291 292 294
287 287 287 285 285 285 285 284 284 284 284 284 284 284 284 284 284 284 284 284 284 283 283 283 283 283 283 284 284 284 283 282 282 281 281 282 282 285 287 290 289 291 291
Wind_Speed
11 14 20 23 22 22 21 20 19 18 18 14 10 10 9 9 8 8 7 7 6 6 6 3 5 5 5 5 5 5 6 5 4 5 4 4 4 7 7 6 4 5 7
10 13 18 21 21 20 19 19 18 18 18 18 16 9 6 6 7 7 7 7 7 7 8 7 3 5 5 5 6 6 6 5 5 4 3 4 8 8 6 5 4 6 4
10 11 13 20 19 20 19 19 18 18 18 17 17 16 15 9 4 4 6 7 8 9 9 7 4 5 7 7 7 7 6 6 6 4 3 3 4 4 4 4 2 2 1
11 10 12 18 17 18 19 19 19 18 17 16 16 15 15 15 13 11 9 7 7 8 8 9 9 5 9 9 8 8 8 7 7 6 7 3 3 4 3 2 2 2 3
10 11 12 17 17 18 18 18 18 18 18 18 16 16 16 16 16 15 14 12 11 10 9 8 8 9 8 10 10 9 9 8 6 7 6 5 4 4 4 4 5 4 3
9 10 11 16 16 17 17 17 17 17 17 18 17 17 17 16 15 15 14 14 14 14 11 11 10 7 8 9 11 11 10 9 7 9 6 4 7 1 6 7 7 6 6
9 10 10 15 15 16 16 17 17 17 17 18 16 15 17 16 16 16 17 16 15 13 13 13 13 11 9 7 9 10 9 9 9 7 7 7 8 4 9 10 12 11 10
9 9 9 10 13 14 17 16 17 17 17 17 16 15 15 16 17 17 17 16 17 15 16 15 14 13 12 10 8 7 7 8 9 10 8 8 7 8 11 11 11 12 12
10 9 10 10 9 10 14 15 16 17 17 17 18 16 15 15 16 17 17 17 17 16 16 15 15 15 14 11 9 9 7 8 12 9 8 7 7 12 14 14 14 14 13
10 11 11 10 10 9 9 15 15 15 17 17 17 18 15 13 15 15 18 18 17 16 16 16 15 15 15 11 10 9 8 8 12 11 8 8 4 12 15 16 16 15 14
8 11 10 11 10 10 9 9 11 14 16 17 16 17 12 9 11 11 14 16 17 18 17 16 17 16 16 8 8 11 8 7 9 8 7 4 7 15 16 17 17 17 16
11 10 10 11 11 9 8 9 10 10 10 12 13 13 10 10 10 10 10 15 16 19 15 17 17 15 13 8 7 9 6 9 7 8 8 4 10 16 17 18 18 19 18
8 8 10 9 10 10 9 7 6 6 7 8 14 12 10 8 9 8 7 8 9 13 9 12 11 8 10 8 8 7 8 8 7 7 9 5 12 18 18 19 19 20 19
7 9 10 10 9 10 7 7 8 8 8 8 11 14 10 7 9 9 7 9 9 8 11 10 7 10 10 10 9 9 9 8 6 5 7 11 11 17 19 20 21 22 21
6 7 9 9 9 8 9 7 8 8 8 9 10 13 10 10 9 8 9 9 9 10 10 9 10 9 10 10 10 10 10 9 9 6 6 13 12 16 19 21 21 24 24
5 6 7 9 9 8 9 10 8 7 8 9 10 12 13 9 9 9 9 9 9 10 9 9 10 9 9 10 10 11 11 10 9 8 6 8 14 20 19 20 22 23 24
5 6 7 8 9 9 9 9 8 8 8 9 9 13 14 12 11 10 9 10 10 9 11 9 10 9 9 10 11 9 9 10 9 10 9 7 10 17 21 27 32 26 24
5 6 6 5 7 9 9 8 7 7 7 8 8 9 13 13 12 10 9 10 10 9 9 9 10 10 10 10 10 9 7 8 12 11 10 10 11 11 15 25 26 27 28
5 6 7 6 7 7 8 8 8 9 8 8 8 9 12 13 12 10 9 10 10 9 9 10 9 10 11 11 10 8 6 5 11 9 13 14 15 14 11 19 24 21 27
5 5 6 5 5 5 5 5 6 7 7 7 8 9 12 10 12 10 9 11 10 10 10 11 12 11 11 12 10 7 5 4 10 9 11 11 15 16 15 16 13 14 23
5 5 5 5 5 3 3 3 5 6 6 7 7 10 11 11 12 11 9 10 10 10 11 13 11 12 11 14 9 7 5 3 12 6 8 11 16 15 16 14 11 11 12
7 6 5 5 5 5 3 3 3 3 5 5 5 8 10 10 11 10 10 9 11 8 12 12 12 10 8 11 9 5 6 3 10 6 8 10 17 13 14 15 15 15 14
9 8 6 6 5 4 4 4 4 4 3 4 5 5 7 9 9 10 10 9 9 9 9 11 11 13 9 9 12 7 5 5 10 5 8 9 16 13 13 15 15 16 15
11 9 7 6 6 4 3 4 4 4 4 3 4 4 5 7 8 9 9 10 10 8 10 10 9 9 9 9 5 7 5 6 5 7 5 6 14 15 14 12 12 13 14
11 10 8 7 6 6 5 4 3 5 4 3 3 4 5 5 7 8 9 9 9 7 9 10 10 10 8 7 6 7 6 6 6 6 9 11 10 11 13 11 13 11 13
10 10 9 8 7 6 5 5 4 5 4 3 3 3 3 3 4 7 7 7 7 7 8 8 9 9 8 7 6 6 6 5 8 6 10 14 15 11 11 9 11 11 13
Wind_Direction
350 351 349 352 1 7 14 24 22 23 22 26 31 50 51 46 43 46 41 37 29 15 2 5 153 146 148 138 139 137 128 118 113 104 70 39 166 122 107 76 346 69 62
348 351 350 355 1 8 13 20 24 26 26 22 21 19 42 52 42 34 26 21 18 11 8 9 184 175 166 159 158 157 147 140 129 122 103 96 100 136 114 93 38 52 45
1 358 351 358 1 9 13 18 23 28 27 22 24 19 18 17 32 41 32 25 14 4 0 359 29 216 183 175 174 174 171 169 165 167 193 208 131 138 130 122 95 59 346
4 4 4 358 4 11 16 19 22 25 28 27 25 22 26 22 22 21 18 14 12 8 2 356 0 341 197 188 186 191 189 190 187 186 217 209 185 146 186 188 176 149 81
11 8 9 3 8 15 15 20 23 25 25 24 27 26 28 32 27 24 24 19 15 7 358 349 356 358 218 203 196 199 199 198 201 213 243 235 232 152 236 220 218 216 229
15 15 16 8 11 18 19 21 23 26 27 25 26 29 30 31 32 30 28 25 19 13 360 352 352 344 347 234 212 202 202 198 205 239 249 222 262 169 254 253 245 248 240
20 17 21 15 15 21 23 25 26 28 28 27 28 28 31 29 31 30 29 28 22 15 9 1 356 351 336 328 237 216 205 203 234 262 262 261 251 229 263 275 275 241 240
27 24 22 25 20 25 26 27 28 29 28 27 29 30 32 31 29 28 28 29 23 19 18 10 3 353 341 332 313 266 235 216 230 256 257 263 260 246 258 268 275 269 238
34 30 28 22 20 33 34 29 31 31 29 27 25 27 29 32 31 27 22 26 25 18 20 16 9 2 349 335 331 326 294 243 264 268 260 260 215 240 255 262 268 269 243
36 31 27 25 24 22 25 29 30 30 29 26 25 21 23 27 23 27 20 18 20 17 17 14 12 5 355 1 343 328 309 292 266 266 269 265 245 255 258 260 263 271 260
38 33 27 25 26 23 30 29 29 29 28 25 20 19 19 21 17 19 22 13 21 14 11 8 10 5 356 354 355 338 295 268 273 273 275 263 231 263 266 263 264 264 265
30 27 25 26 27 27 29 25 28 30 31 28 21 18 18 18 16 6 16 14 17 8 7 3 9 2 6 355 344 327 340 311 286 282 278 280 246 259 268 269 265 265 266
33 33 30 29 31 30 35 31 29 32 29 27 26 20 21 20 16 17 10 10 7 7 5 360 1 3 358 353 347 338 333 331 316 298 294 264 269 273 271 269 266 265 264
44 35 31 34 38 39 38 41 40 37 34 32 28 22 21 21 22 21 18 14 13 7 3 2 356 351 351 347 345 332 334 330 322 324 314 306 274 280 285 279 273 267 263
60 49 42 38 41 41 44 48 45 41 37 36 31 29 22 24 25 22 23 20 18 9 7 2 356 353 350 347 342 338 331 324 326 323 326 334 305 286 289 293 287 280 274
72 62 59 51 49 53 52 52 49 45 43 42 39 31 31 28 26 26 22 21 16 12 7 3 358 352 351 347 342 342 333 332 332 333 333 332 332 349 298 294 298 295 291
66 68 64 64 57 58 61 57 53 46 46 44 41 36 32 30 29 27 25 20 12 9 4 4 3 357 353 349 346 343 343 347 346 350 10 25 2 9 6 16 12 345 312
100 79 78 77 73 66 65 61 61 54 53 48 43 39 35 32 27 33 28 22 13 13 11 7 7 357 355 350 342 346 356 7 23 16 21 26 11 10 357 2 359 1 355
102 89 81 78 79 79 73 74 67 60 55 50 46 39 35 34 29 34 29 22 17 17 18 11 11 4 356 349 338 344 358 38 19 21 28 19 19 9 2 0 357 357 355
130 103 89 83 89 103 91 83 74 64 58 50 45 40 35 33 32 31 30 26 21 21 18 12 11 8 8 349 337 350 3 82 23 29 27 13 14 7 5 1 353 352 353
160 148 121 107 82 112 119 97 76 65 61 56 49 40 38 34 31 30 29 25 20 26 18 15 5 7 12 0 348 349 16 29 23 16 23 10 10 5 3 357 355 352 348
174 166 150 117 90 75 82 89 72 83 74 62 56 49 37 37 33 35 29 27 24 19 21 19 13 6 16 16 0 317 3 341 11 352 14 4 6 356 356 359 353 352 352
192 183 173 150 123 99 107 129 129 124 117 88 57 50 41 37 36 35 33 28 25 23 20 17 13 15 6 18 32 14 345 355 329 3 1 355 359 350 345 352 347 353 351
194 182 178 166 156 139 139 119 97 84 92 70 60 57 56 40 39 34 31 27 26 21 20 14 13 12 9 14 10 15 28 328 339 323 332 347 349 344 339 341 343 345 348
187 187 185 178 175 164 159 144 129 111 111 117 108 88 66 56 41 33 28 26 25 20 17 13 11 13 14 6 8 356 350 340 15 311 316 327 334 334 341 328 333 342 345
187 189 188 189 190 182 185 173 146 127 123 125 92 76 59 55 43 33 25 24 22 16 13 6 5 9 8 5 359 4 360 351 342 335 318 324 327 336 320 342 336 338 341